F44 weather

Athens Municipal Airport
Athens, Texas, United States

Public forecast

Using degrees Fahrenheit for public forecast. Weather courtesy of forecast.io.

Current aviation weather report (METAR) for Athens Municipal Airport

Retrieved UTC (0 seconds ago):

Closest aviation forecast (TAF) to Athens Municipal Airport

Closest forecast is Tyler Pounds Regional Airport, 24.5 nm (45.3 km) ENE. Retrieved 2020-07-10 00:45 UTC (3 hours ago):

TAF KTYR 092342Z 1000/1024 18006KT P6SM SCT250 FM101000 18008KT P6SM SCT015 FM101500 21010KT P6SM SCT035